K4DNM Weather Reports


time (UTC)temp
C
wind
direction
speed
KPH
gust
KPH
rain 1hr
cm
rain 24hr
cm
rain mn
cm
humidity
%
barometer
mb
20260508044754 11 0 1.6 3.2 0.00 0.89 0.00 100 1012.5
20260508044520 11 317 1.6 3.2 0.00 0.89 0.00 100 1012.5
20260508044359 11 317 1.6 3.2 0.00 0.89 0.00 100 1012.5
20260508044235 11 0 0.0 1.6 0.00 0.89 0.00 100 1012.4
20260508043859 11 0 0.0 1.6 0.00 0.89 0.00 100 1012.4
20260508043516 11 275 1.6 3.2 0.00 0.89 0.00 100 1012.3
20260508043400 11 275 1.6 3.2 0.00 0.89 0.00 100 1012.3
20260508042755 11 350 1.6 3.2 0.00 0.89 0.00 100 1012.3
20260508042255 11 337 1.6 3.2 0.00 0.89 0.00 100 1012.4
20260508041728 11 350 1.6 1.6 0.00 0.89 0.00 99 1012.5
20260508041229 11 277 1.6 1.6 0.00 0.89 0.00 100 1012.4
20260508040727 11 285 1.6 3.2 0.00 0.89 0.00 99 1012.1
20260508040227 11 330 1.6 3.2 0.00 0.89 0.00 99 1012.1
20260508035959 11 262 1.6 3.2 0.00 0.89 3.23 99 1012.0
20260508035832 11 262 1.6 3.2 0.00 0.89 3.23 99 1012.0
20260508035227 11 342 1.6 3.2 0.00 0.89 3.23 99 1011.9
20260508034727 11 343 1.6 3.2 0.00 0.89 3.23 99 1011.9
20260508034226 11 266 0.0 4.8 0.00 0.89 3.23 99 1011.8
20260508033727 11 330 1.6 4.8 0.00 0.89 3.23 99 1011.6
20260508033711 11 301 3.2 3.2 0.00 0.89 3.23 99 1011.7
20260508033331 11 301 3.2 3.2 0.00 0.89 3.23 99 1011.7
20260508032728 11 0 3.2 3.2 0.00 0.89 3.23 100 1011.1
20260508032214 11 358 1.6 3.2 0.00 0.89 3.23 99 1011.6
20260508031656 11 73 1.6 3.2 0.00 0.89 3.23 99 1011.7
20260508031156 11 349 1.6 3.2 0.00 0.89 3.23 99 1011.7
20260508030659 11 331 1.6 3.2 0.00 0.89 3.23 99 1011.4
20260508030200 11 336 1.6 3.2 0.00 0.89 3.23 99 1011.4
20260508025918 11 345 1.6 3.2 0.00 0.89 3.23 99 1011.3
20260508025802 11 345 1.6 3.2 0.00 0.89 3.23 99 1011.3
20260508025156 11 342 1.6 3.2 0.00 0.89 3.23 99 1011.3
20260508024657 11 4 1.6 3.2 0.00 0.89 3.23 99 1011.3
20260508024156 11 16 1.6 3.2 0.00 0.89 3.23 99 1011.2
20260508023700 11 342 1.6 3.2 0.00 0.89 3.23 99 1011.2
20260508023200 11 331 1.6 3.2 0.00 0.89 3.23 99 1011.2
20260508022911 11 354 1.6 3.2 0.00 0.89 3.23 99 1011.1
20260508022748 11 354 1.6 3.2 0.00 0.89 3.23 99 1011.1
20260508022144 11 350 3.2 3.2 0.00 0.89 3.23 99 1011.2
20260508021913 11 350 1.6 3.2 0.00 0.89 3.23 99 1011.3
20260508021749 11 350 1.6 3.2 0.00 0.89 3.23 99 1011.3
20260508021144 11 69 1.6 3.2 0.00 0.89 3.23 99 1011.3
20260508020644 11 359 0.0 3.2 0.00 0.89 3.23 99 1011.1
20260508020144 11 308 0.0 1.6 0.00 0.89 3.23 99 1011.1
20260508015912 11 0 0.0 1.6 0.03 0.89 3.23 99 1011.0
20260508015748 11 0 0.0 1.6 0.03 0.89 3.23 99 1011.0
20260508015144 11 0 1.6 1.6 0.13 0.89 3.23 99 1011.0
20260508014644 11 266 1.6 3.2 0.23 0.89 3.23 99 1010.8
20260508014144 11 335 1.6 3.2 0.25 0.89 3.23 99 1010.6
20260508013644 11 353 1.6 3.2 0.33 0.89 3.23 98 1010.4
20260508013145 11 324 1.6 1.6 0.56 0.89 3.23 98 1010.5
20260508012630 11 347 1.6 3.2 0.56 0.89 3.23 98 1010.5
20260508012114 11 329 1.6 3.2 0.56 0.89 3.23 98 1010.4
20260508011900 11 358 1.6 3.2 0.56 0.89 3.23 98 1010.2
20260508011720 11 358 1.6 3.2 0.56 0.89 3.23 98 1010.2
20260508011342 11 51 1.6 3.2 0.56 0.89 3.23 98 1010.3
20260508011222 11 51 1.6 3.2 0.56 0.89 3.23 98 1010.3
20260508010617 11 0 1.6 3.2 0.56 0.89 3.23 97 1010.5
20260508010334 11 344 1.6 3.2 0.56 0.89 3.23 97 1010.4
20260508010222 11 344 1.6 3.2 0.56 0.89 3.23 97 1010.4
20260508005617 11 348 1.6 3.2 0.53 0.89 3.20 97 1010.6
20260508005339 11 358 1.6 3.2 0.43 0.79 3.10 97 1010.8
20260508005220 11 358 1.6 3.2 0.43 0.79 3.10 97 1010.8
20260508004614 11 341 1.6 3.2 0.33 0.69 3.02 96 1010.8
20260508004115 11 0 1.6 3.2 0.28 0.64 2.97 96 1010.8
20260508003615 12 262 1.6 3.2 0.20 0.56 2.90 95 1010.2
20260508003059 12 326 1.6 3.2 0.00 0.36 2.69 95 1010.0
20260508002601 12 351 3.2 8.0 0.00 0.36 2.69 94 1009.6
20260508002116 12 353 3.2 8.0 0.00 0.36 2.69 94 1009.3
20260508001604 12 13 3.2 6.4 0.00 0.36 2.69 95 1009.3
20260508001102 12 15 3.2 6.4 0.00 0.36 2.69 95 1009.3
20260508000604 12 38 3.2 4.8 0.00 0.36 2.69 95 1009.3
20260507235829 12 71 3.2 4.8 0.00 0.36 2.69 96 1009.3
20260507235708 12 71 3.2 4.8 0.00 0.36 2.69 96 1009.3
20260507235103 12 3 3.2 4.8 0.00 0.36 2.69 96 1009.2
20260507234605 12 348 3.2 4.8 0.00 0.36 2.69 96 1009.3
20260507234059 12 348 3.2 4.8 0.00 0.36 2.69 96 1009.4
20260507233824 12 354 3.2 3.2 0.00 0.36 2.69 96 1009.4
20260507233706 12 354 3.2 3.2 0.00 0.36 2.69 96 1009.4
20260507233046 12 348 3.2 3.2 0.00 0.36 2.69 96 1009.4
20260507232548 12 1 3.2 4.8 0.00 0.36 2.69 96 1009.5
20260507232046 12 359 3.2 4.8 0.00 0.36 2.69 96 1009.4
20260507231548 12 358 3.2 4.8 0.00 0.36 2.69 96 1009.3
20260507231047 12 11 3.2 4.8 0.00 0.36 2.69 97 1009.1
20260507230548 12 28 3.2 4.8 0.00 0.36 2.69 97 1009.0
20260507230100 12 13 3.2 4.8 0.00 0.36 2.69 97 1009.0
20260507225548 12 358 3.2 6.4 0.00 0.36 2.69 97 1008.9
20260507225047 12 5 3.2 6.4 0.00 0.36 2.69 98 1008.9
20260507224806 12 3 3.2 4.8 0.00 0.36 2.69 98 1008.8
20260507224653 12 3 3.2 4.8 0.00 0.36 2.69 98 1008.8
20260507224048 12 28 3.2 6.4 0.00 0.36 2.69 98 1008.7
20260507223533 12 353 3.2 6.4 0.00 0.36 2.69 98 1008.8
20260507223033 12 19 3.2 6.4 0.00 0.36 2.69 98 1008.7
20260507222532 12 344 3.2 4.8 0.00 0.36 2.69 98 1008.8
20260507222033 12 16 3.2 6.4 0.00 0.36 2.69 98 1008.8
20260507221533 12 357 3.2 6.4 0.00 0.36 2.69 98 1009.0
20260507221033 12 350 3.2 4.8 0.00 0.36 2.69 98 1008.9
20260507220533 12 66 3.2 4.8 0.00 0.36 2.69 98 1008.7
20260507220046 12 3 3.2 4.8 0.00 0.36 2.69 98 1008.8
20260507215533 12 350 3.2 9.7 0.00 0.36 2.69 98 1008.5
20260507215032 12 354 4.8 9.7 0.03 0.36 2.69 98 1008.5
20260507214532 12 4 4.8 8.0 0.05 0.36 2.69 99 1008.5
20260507214034 12 2 4.8 8.0 0.05 0.36 2.69 99 1008.4
20260507213532 12 8 4.8 8.0 0.08 0.36 2.69 99 1008.5
20260507213303 12 356 4.8 11.3 0.10 0.36 2.69 99 1008.5
20260507213138 12 356 4.8 11.3 0.10 0.36 2.69 99 1008.5
20260507212541 12 333 4.8 11.3 0.13 0.36 2.69 99 1008.3
20260507212020 13 21 4.8 8.0 0.15 0.36 2.69 99 1008.1
20260507211519 13 356 4.8 6.4 0.18 0.36 2.69 99 1008.1
20260507211002 13 328 4.8 8.0 0.20 0.36 2.69 99 1008.1
20260507210504 13 345 4.8 9.7 0.23 0.33 2.69 99 1007.9
20260507205950 13 342 4.8 9.7 0.23 0.33 2.67 99 1007.9
20260507205451 13 338 4.8 9.7 0.25 0.33 2.67 99 1007.8
20260507204950 13 11 4.8 11.3 0.23 0.33 2.64 98 1007.9
20260507204451 13 188 4.8 11.3 0.23 0.30 2.64 98 1007.9
20260507203952 14 334 4.8 11.3 0.20 0.28 2.62 98 1007.5
20260507203449 14 347 3.2 6.4 0.18 0.28 2.59 98 1007.5
20260507202949 14 42 1.6 3.2 0.15 0.23 2.57 98 1007.5
20260507202705 14 45 3.2 16.1 0.13 0.20 2.54 98 1007.5
20260507202554 14 45 3.2 16.1 0.13 0.20 2.54 98 1007.5
20260507202156 14 45 6.4 16.1 0.10 0.18 2.51 98 1007.2
20260507202044 14 45 6.4 16.1 0.10 0.18 2.51 98 1007.2
20260507201439 15 39 8.0 16.1 0.10 0.18 2.49 98 1007.3
20260507200935 15 35 6.4 12.9 0.05 0.15 2.46 98 1007.4
20260507200445 15 24 4.8 11.3 0.03 0.10 2.44 98 1007.4
20260507195936 15 6 4.8 14.5 0.03 0.10 2.44 98 1007.5
20260507195433 15 1 6.4 17.7 0.05 0.10 2.41 98 1007.6
20260507194934 15 30 6.4 25.7 0.03 0.08 2.41 98 1007.4
20260507194659 15 29 6.4 25.7 0.03 0.08 2.41 98 1007.3
20260507194538 15 29 6.4 25.7 0.03 0.08 2.41 98 1007.3
20260507193935 15 18 3.2 6.4 0.03 0.08 2.41 98 1007.3
20260507193434 15 20 3.2 11.3 0.03 0.08 2.41 98 1007.3
20260507193151 15 347 3.2 11.3 0.03 0.08 2.41 98 1007.5
20260507193036 15 347 3.2 11.3 0.03 0.08 2.41 98 1007.5
20260507192434 16 31 3.2 11.3 0.03 0.08 2.41 98 1007.3
20260507192154 16 3 3.2 6.4 0.03 0.08 2.41 98 1007.2
20260507192038 16 3 3.2 6.4 0.03 0.08 2.41 98 1007.2
20260507191434 16 352 3.2 4.8 0.03 0.08 2.41 98 1006.8
20260507190934 16 356 3.2 4.8 0.03 0.08 2.41 97 1006.6
20260507190421 16 335 3.2 4.8 0.03 0.08 2.41 97 1006.6
20260507185920 16 4 1.6 3.2 0.03 0.08 2.41 97 1006.8
20260507185420 16 29 1.6 3.2 0.00 0.05 2.39 96 1007.0
20260507184907 17 36 1.6 3.2 0.00 0.05 2.39 96 1007.4
20260507184408 17 303 1.6 3.2 0.00 0.05 2.39 95 1007.3
20260507183904 18 11 1.6 4.8 0.00 0.05 2.39 94 1006.9
20260507183407 18 66 3.2 6.4 0.00 0.05 2.39 94 1006.6
20260507182907 20 64 3.2 6.4 0.00 0.05 2.39 92 1006.7
20260507182848 21 27 1.6 4.8 0.00 0.05 2.39 96 1006.6
20260507182513 21 27 1.6 4.8 0.00 0.05 2.39 96 1006.6
20260507181908 21 49 1.6 3.2 0.03 0.05 2.39 97 1006.5
20260507181408 21 74 1.6 3.2 0.03 0.05 2.39 96 1006.7
20260507180908 21 78 1.6 3.2 0.03 0.05 2.39 97 1006.8
20260507180633 21 239 1.6 4.8 0.03 0.05 2.39 96 1006.8
20260507180512 21 239 1.6 4.8 0.03 0.05 2.39 96 1006.8
20260507175907 21 69 1.6 4.8 0.03 0.05 2.39 96 1006.7
20260507175405 21 138 3.2 4.8 0.03 0.05 2.39 96 1006.7
20260507175113 21 178 1.6 4.8 0.03 0.05 2.39 97 1006.5
20260507174957 21 178 1.6 4.8 0.03 0.05 2.39 97 1006.5
20260507174351 21 0 3.2 8.0 0.03 0.05 2.39 97 1006.6
20260507173836 21 179 4.8 11.3 0.03 0.05 2.39 97 1006.4
20260507173323 21 223 4.8 11.3 0.03 0.05 2.39 97 1006.4
20260507172824 20 178 3.2 11.3 0.03 0.05 2.39 97 1006.5
20260507172322 20 178 3.2 8.0 0.03 0.05 2.36 97 1006.6
20260507171822 20 172 3.2 8.0 0.03 0.03 2.36 97 1006.6
20260507171322 20 177 1.6 4.8 0.03 0.03 2.36 98 1006.8
20260507170823 20 200 1.6 4.8 0.00 0.03 2.36 98 1007.0
20260507170322 20 0 1.6 3.2 0.00 0.03 2.36 98 1007.3
20260507165806 20 111 3.2 8.0 0.00 0.03 2.36 98 1007.5
20260507165306 20 209 3.2 8.0 0.03 0.03 2.36 98 1007.7
20260507165027 20 91 1.6 4.8 0.03 0.03 2.36 98 1007.8
20260507164911 20 91 1.6 4.8 0.03 0.03 2.36 98 1007.8
20260507164307 20 45 1.6 6.4 0.03 0.03 2.36 98 1007.8
20260507163819 20 235 1.6 6.4 0.03 0.03 2.36 98 1007.9
20260507163307 20 180 1.6 4.8 0.03 0.03 2.36 98 1007.9
20260507162811 20 58 1.6 4.8 0.03 0.03 2.36 99 1008.0
20260507162307 20 269 1.6 3.2 0.00 0.00 2.34 99 1008.1
20260507161808 20 210 1.6 4.8 0.00 0.00 2.34 99 1008.0
20260507161307 20 0 1.6 4.8 0.00 0.00 2.34 99 1008.1
20260507160754 20 151 3.2 6.4 0.00 0.00 2.34 99 1008.0
20260507160253 20 220 3.2 6.4 0.00 0.00 2.34 99 1008.0
20260507160022 20 214 3.2 6.4 0.00 0.00 2.34 99 1007.8
20260507155900 20 214 3.2 6.4 0.00 0.00 2.34 99 1007.8
20260507155239 20 201 1.6 3.2 0.00 0.00 2.34 99 1007.8
20260507154741 19 136 0.0 0.0 0.00 0.00 2.34 99 1007.7
20260507154138 19 125 1.6 6.4 0.51 2.36 2.34 99 1007.8
20260507153641 19 241 1.6 3.2 0.51 2.34 2.29 99 1007.9
20260507153138 19 60 3.2 11.3 0.51 2.31 2.26 99 1008.1
20260507152638 19 84 6.4 14.5 0.51 2.29 2.26 99 1008.1
20260507152138 19 53 8.0 16.1 0.51 2.26 2.24 99 1008.1
20260507151638 19 133 8.0 16.1 0.48 2.26 2.21 99 1008.2
20260507151138 19 149 6.4 14.5 0.43 2.21 2.16 99 1008.3
20260507150639 19 136 3.2 11.3 0.41 2.16 2.13 99 1008.5
20260507150139 19 194 3.2 8.0 0.33 2.11 2.06 99 1008.7
20260507145858 19 58 3.2 8.0 0.28 2.03 2.01 99 1008.6
20260507145743 19 58 3.2 8.0 0.28 2.03 2.01 99 1008.6
20260507145128 19 151 3.2 6.4 0.23 2.01 1.96 100 1008.6
20260507144628 20 222 3.2 6.4 0.15 1.93 1.88 100 1008.6
20260507144128 20 118 1.6 3.2 0.10 1.88 1.83 100 1008.6
20260507143628 20 26 1.6 4.8 0.05 1.83 1.78 100 1008.5
20260507143125 20 105 3.2 4.8 0.03 1.80 1.75 100 1008.6
20260507142624 20 49 3.2 4.8 0.00 1.78 1.73 100 1008.5
20260507142125 20 133 3.2 6.4 0.00 1.78 1.73 100 1008.5
20260507141625 20 7 3.2 6.4 0.00 1.78 1.73 100 1008.5
20260507141125 20 107 1.6 3.2 0.00 1.78 1.73 100 1008.5
20260507140853 20 131 1.6 6.4 0.00 1.78 1.73 100 1008.5
20260507140730 20 131 1.6 6.4 0.00 1.78 1.73 100 1008.5
20260507140125 20 111 3.2 6.4 0.00 1.78 1.73 100 1008.7
20260507135609 20 148 3.2 6.4 0.00 1.78 1.73 100 1009.0
20260507135112 20 141 3.2 6.4 0.00 1.78 1.73 100 1008.8
20260507134612 20 71 1.6 3.2 0.00 1.78 1.73 100 1008.7
20260507134112 20 132 3.2 6.4 0.00 1.78 1.73 100 1008.5
20260507133612 20 137 3.2 6.4 0.00 1.78 1.73 100 1008.4
20260507133110 20 127 1.6 3.2 0.00 1.78 1.73 100 1008.6
20260507132609 20 340 1.6 4.8 0.00 1.78 1.73 100 1008.6
20260507132110 20 135 1.6 4.8 0.00 1.78 1.73 100 1008.5
20260507131609 20 167 1.6 6.4 0.00 1.78 1.73 100 1008.6
20260507131110 19 352 3.2 6.4 0.00 1.78 1.73 100 1008.5
20260507130610 19 109 3.2 8.0 0.00 1.78 1.73 100 1008.3
20260507130112 19 137 3.2 8.0 0.00 1.78 1.73 100 1008.4
20260507125736 19 169 3.2 6.4 0.00 1.78 1.73 99 1008.6
20260507125729 19 130 3.2 6.4 0.00 1.78 1.73 99 1008.8
20260507125707 19 96 3.2 8.0 0.00 1.78 1.73 99 1008.5
20260507125615 19 169 3.2 6.4 0.00 1.78 1.73 99 1008.6
20260507125419 19 104 3.2 8.0 0.00 1.78 1.73 99 1008.7
20260507125324 19 10 3.2 8.0 0.00 1.78 1.73 99 1008.7
20260507125234 19 130 3.2 6.4 0.00 1.78 1.73 99 1008.8
20260507123526 19 130 3.2 6.4 0.00 1.78 1.73 99 1008.8
20260507123027 19 143 3.2 6.4 0.00 1.78 1.73 99 1008.9
20260507122527 19 135 3.2 6.4 0.00 1.78 1.73 99 1008.9
20260507122028 19 157 3.2 6.4 0.00 1.78 1.73 99 1009.0
20260507121751 19 117 3.2 6.4 0.00 1.78 1.73 99 1009.0
20260507121632 19 117 3.2 6.4 0.00 1.78 1.73 99 1009.0
20260507121027 19 315 3.2 6.4 0.00 1.78 1.73 99 1009.0
20260507120540 19 149 3.2 6.4 0.00 1.78 1.73 99 1009.1
20260507120015 19 129 3.2 4.8 0.00 1.78 1.73 99 1009.3
20260507115514 19 99 3.2 4.8 0.00 1.78 1.73 99 1009.2
20260507115011 19 144 3.2 6.4 0.05 1.78 1.73 100 1009.4
20260507114735 19 138 4.8 8.0 0.05 1.78 1.73 99 1009.3
20260507114616 19 138 4.8 8.0 0.05 1.78 1.73 99 1009.3
20260507114012 18 141 3.2 8.0 0.08 1.78 1.73 100 1009.4
20260507113511 18 109 3.2 6.4 0.08 1.78 1.73 100 1009.4
20260507113011 18 151 3.2 6.4 0.08 1.78 1.73 100 1009.5
20260507112516 18 123 3.2 4.8 0.10 1.78 1.73 100 1009.5
20260507112011 18 135 3.2 6.4 0.10 1.78 1.73 100 1009.5
20260507111511 18 136 4.8 6.4 0.10 1.78 1.73 100 1009.5
20260507111014 18 160 3.2 6.4 0.13 1.78 1.73 100 1009.4
20260507110515 18 130 3.2 4.8 0.13 1.78 1.73 100 1009.4
20260507110057 18 108 4.8 8.0 0.08 1.70 1.65 100 1009.0
20260507110044 18 146 3.2 6.4 0.13 1.75 1.73 100 1009.3
20260507105954 18 103 3.2 6.4 0.10 1.75 1.70 100 1009.1
20260507105904 18 157 3.2 6.4 0.10 1.73 1.68 100 1009.1
20260507105710 18 171 3.2 6.4 0.08 1.70 1.65 100 1009.2
20260507103959 18 108 4.8 8.0 0.08 1.70 1.65 100 1009.0
20260507103459 18 159 3.2 8.0 0.10 1.70 1.65 100 1009.1
20260507103001 18 107 3.2 3.2 0.08 1.70 1.65 100 1009.3
20260507102502 18 132 3.2 4.8 0.08 1.68 1.65 100 1009.4
20260507102001 18 143 3.2 4.8 0.08 1.68 1.65 100 1009.2
20260507101502 18 168 3.2 6.4 0.05 1.65 1.63 100 1009.1
20260507101002 18 122 3.2 6.4 0.05 1.65 1.60 100 1009.1
20260507100447 18 142 3.2 8.0 0.08 1.65 1.60 100 1008.9
20260507095944 18 150 3.2 8.0 0.13 1.65 1.60 100 1008.9
20260507095448 18 146 3.2 8.0 0.23 1.65 1.60 100 1008.8
20260507094948 18 165 3.2 9.7 0.33 1.63 1.60 100 1008.9
20260507094444 18 189 4.8 11.3 0.38 1.63 1.60 100 1008.8
20260507093942 18 146 3.2 11.3 0.46 1.63 1.57 100 1008.8
20260507093444 18 155 3.2 6.4 0.48 1.60 1.57 100 1008.8
20260507092944 18 105 3.2 6.4 0.51 1.60 1.57 100 1009.0
20260507092443 18 159 3.2 6.4 0.51 1.60 1.57 100 1009.0
20260507091944 18 139 3.2 6.4 0.56 1.60 1.55 100 1009.0
20260507091443 18 319 1.6 4.8 0.58 1.60 1.55 100 1009.0
20260507090943 18 125 3.2 12.9 0.61 1.60 1.55 100 1009.0
20260507090437 18 167 3.2 12.9 0.61 1.57 1.52 100 1009.1
20260507085925 18 120 3.2 9.7 0.56 1.52 1.47 100 1009.2
20260507085426 18 193 3.2 9.7 0.48 1.42 1.37 100 1009.2
20260507084925 18 3 3.2 9.7 0.38 1.30 1.27 99 1009.4
20260507084426 18 183 3.2 8.0 0.36 1.24 1.22 99 1009.6
20260507083926 18 116 1.6 6.4 0.28 1.17 1.12 99 1009.7
20260507083425 18 153 1.6 6.4 0.23 1.12 1.09 99 1009.7
20260507082923 18 79 3.2 9.7 0.23 1.09 1.07 99 1009.7
20260507082423 18 157 1.6 9.7 0.20 1.09 1.04 99 1009.6
20260507081923 18 329 3.2 8.0 0.15 1.04 0.99 99 1009.6
20260507081423 18 181 3.2 8.0 0.15 1.02 0.99 99 1008.8
20260507080924 18 152 3.2 6.4 0.10 0.99 0.94 99 1009.4
20260507080423 18 186 1.6 4.8 0.10 0.97 0.94 99 1009.7
20260507075924 18 142 1.6 4.8 0.08 0.97 0.91 99 1009.8
20260507075424 18 0 1.6 4.8 0.05 0.94 0.89 99 1009.9
20260507074923 18 167 1.6 4.8 0.05 0.91 0.89 99 1010.0
20260507074424 18 151 1.6 4.8 0.03 0.89 0.86 99 1009.9
20260507073923 18 190 1.6 4.8 0.00 0.89 0.84 99 1009.6
20260507073423 18 113 1.6 3.2 0.00 0.89 0.84 99 1009.8
20260507072924 18 136 1.6 4.8 0.00 0.89 0.84 99 1010.1
20260507072424 18 207 3.2 4.8 0.00 0.89 0.84 99 1009.8
20260507072142 18 169 1.6 4.8 0.00 0.89 0.84 99 1009.8
20260507072023 18 169 1.6 4.8 0.00 0.89 0.84 99 1009.8
20260507071640 18 153 0.0 3.2 0.00 0.89 0.84 99 1010.1
20260507071524 18 153 0.0 3.2 0.00 0.89 0.84 99 1010.1
20260507070919 18 0 0.0 3.2 0.00 0.89 0.84 99 1010.4
20260507070418 18 190 0.0 3.2 0.00 0.89 0.84 99 1010.1
20260507065916 18 141 0.0 3.2 0.00 0.89 0.84 98 1010.1
20260507065417 18 0 0.0 3.2 0.00 0.89 0.84 98 1010.3
20260507064917 18 137 0.0 3.2 0.00 0.89 0.84 98 1010.3
20260507064419 18 0 0.0 4.8 0.00 0.89 0.84 98 1010.4
20260507063917 18 0 1.6 4.8 0.00 0.89 0.84 98 1010.5
20260507063417 18 195 1.6 4.8 0.03 0.89 0.84 98 1010.5
20260507063137 18 0 1.6 4.8 0.05 0.89 0.84 98 1010.7
20260507063021 18 0 1.6 4.8 0.05 0.89 0.84 98 1010.7
20260507062416 18 157 1.6 6.4 0.13 0.89 0.84 98 1011.1
20260507061915 18 0 1.6 6.4 0.23 0.89 0.84 98 1011.1
20260507061414 18 219 1.6 6.4 0.38 0.89 0.84 98 1010.8
20260507061139 19 210 1.6 3.2 0.51 0.89 0.84 98 1010.6
20260507061021 19 210 1.6 3.2 0.51 0.89 0.84 98 1010.6
20260507060414 19 190 0.0 3.2 0.66 0.89 0.84 98 1010.4
20260507055911 19 0 0.0 4.8 0.71 0.89 0.84 97 1010.5
20260507055639 19 0 1.6 6.4 0.76 0.89 0.84 97 1010.6
20260507055515 19 0 1.6 6.4 0.76 0.89 0.84 97 1010.6
20260507054912 19 148 3.2 6.4 0.79 0.89 0.84 97 1010.5
20260507054412 19 206 3.2 4.8 0.81 0.89 0.84 97 1010.3
20260507053912 19 169 3.2 11.3 0.79 0.86 0.84 97 1010.3
20260507053411 19 148 3.2 11.3 0.79 0.84 0.81 96 1010.0
20260507052909 19 123 0.0 4.8 0.74 0.81 0.76 96 1011.6
20260507052409 19 190 0.0 4.8 0.69 0.76 0.71 95 1012.2
20260507052127 19 0 0.0 4.8 0.58 0.64 0.61 94 1012.2
20260507052013 19 0 0.0 4.8 0.58 0.64 0.61 94 1012.2
20260507051408 19 247 1.6 6.4 0.43 0.48 0.46 94 1012.2
20260507051140 19 0 1.6 6.4 0.33 0.38 0.33 93 1012.3
20260507051014 19 0 1.6 6.4 0.33 0.38 0.33 93 1012.3
20260507050407 20 182 0.0 4.8 0.18 0.23 0.18 91 1012.5
20260507045906 20 0 0.0 3.2 0.13 0.15 0.13 89 1012.2
20260507045407 20 0 0.0 1.6 0.08 0.10 0.08 87 1012.1
20260507044907 20 91 0.0 3.2 0.05 0.08 0.05 85 1011.8